GFSWCAN_prec_cthk_150.txt.gz
RH
73 76 76 68 63 66 74 81 88 82 70 61 53 46 54 95 98 99 98 99 98 92 88 83 83 81 76 84 83 83 86 81 76 73 69 69 67 61 60 53 62 72 69 67 64 62 60 46 61 59 59 56 50 52
84 78 76 58 64 57 65 75 84 86 70 58 48 55 76 97 98 99 99 98 94 81 77 78 79 76 77 77 74 79 78 79 75 71 65 61 64 62 57 70 57 61 67 73 67 61 69 64 60 58 64 51 49 56
78 78 69 54 58 57 59 68 73 71 64 51 59 74 93 98 99 98 98 95 93 93 92 87 84 80 77 81 73 87 84 80 77 72 71 73 69 63 71 66 65 64 65 57 59 61 58 58 64 58 63 52 57 61
71 63 63 55 56 64 66 69 71 65 60 51 52 90 93 98 99 98 95 92 95 94 92 96 88 85 74 68 69 72 76 78 81 84 81 78 78 72 76 75 82 78 68 58 47 41 45 53 58 60 56 59 57 59
59 60 59 61 77 77 81 87 88 69 54 49 81 91 98 99 99 98 99 97 91 83 76 88 95 90 79 76 73 70 71 75 83 87 86 88 81 80 80 71 63 59 62 74 72 63 64 66 69 61 73 62 56 61
62 61 66 83 88 91 96 92 51 50 57 81 90 90 93 98 99 97 98 97 77 74 73 85 88 85 86 77 80 82 76 70 69 79 80 76 79 84 79 63 50 46 41 36 36 42 51 58 55 66 55 52 61 66
64 70 81 89 97 98 98 73 75 74 68 76 82 95 99 98 98 96 83 77 81 84 78 90 88 79 76 78 81 81 80 80 74 67 67 70 71 70 64 59 47 44 38 41 44 50 50 52 57 74 58 63 66 69
62 76 89 97 99 99 99 97 97 99 91 93 99 99 98 98 94 96 96 89 82 76 79 82 83 73 67 63 68 66 73 80 79 67 60 58 58 61 60 47 44 48 50 49 48 44 42 45 59 61 58 66 68 67
68 88 95 97 99 98 98 99 99 99 97 98 98 96 95 92 90 94 90 84 76 65 64 63 61 71 66 64 64 72 79 83 74 66 63 63 57 57 45 49 49 48 53 54 52 49 46 48 53 58 65 69 68 64
67 82 92 97 98 98 97 98 98 98 97 96 93 88 96 92 80 78 70 61 54 60 58 57 47 67 61 66 68 70 84 86 77 66 67 67 60 55 51 51 52 49 54 56 54 50 48 50 64 70 70 71 67 70
63 67 85 94 96 98 98 94 90 90 91 84 85 87 87 80 76 70 67 64 59 56 45 44 42 49 66 68 72 66 74 75 69 55 63 63 64 58 57 56 53 49 46 45 46 47 47 47 66 76 73 70 73 88
59 63 70 79 83 85 87 86 86 85 74 69 70 75 78 78 74 70 68 64 60 52 43 37 34 42 61 65 74 71 75 85 75 72 81 85 70 62 74 68 58 60 70 64 63 56 53 57 64 68 70 80 92 95
59 58 59 67 75 73 73 73 75 73 68 67 68 69 70 71 71 63 64 57 50 42 34 35 38 49 65 66 75 73 76 89 76 82 74 63 59 68 65 67 66 62 60 61 61 68 67 71 79 78 84 94 98 94
59 61 57 54 56 59 62 66 67 64 62 61 59 61 61 63 54 49 42 42 44 48 54 54 64 74 81 87 81 67 68 75 75 71 62 63 75 81 76 68 63 60 58 60 60 66 72 74 79 87 95 97 83 63
53 55 58 51 52 53 56 58 56 58 58 58 55 54 48 50 50 48 61 51 58 66 78 84 89 94 90 89 78 70 73 73 62 52 50 67 80 77 68 67 65 68 67 69 72 77 83 84 90 95 88 69 59 60
53 57 60 45 46 50 51 52 50 68 63 70 66 60 62 55 61 63 67 80 80 87 85 90 95 92 92 83 74 66 55 52 54 67 77 79 75 69 66 66 63 72 75 73 73 74 74 75 74 67 61 60 62 64
55 58 54 49 47 50 54 61 72 80 88 78 81 78 82 81 68 60 59 68 84 90 89 83 83 76 77 79 66 58 63 67 63 74 86 81 74 70 66 65 72 85 72 68 69 68 66 62 59 60 63 65 66 65
64 55 58 62 61 64 73 83 90 93 88 82 82 84 82 93 88 64 58 62 77 84 83 73 63 66 73 88 81 83 85 89 84 78 73 68 65 67 74 84 92 84 71 68 65 60 60 62 64 65 65 65 65 66
58 54 57 64 71 77 87 90 90 93 86 91 89 81 83 81 84 68 55 52 60 61 69 64 63 59 72 78 87 93 91 88 86 82 80 80 82 82 87 92 87 77 73 68 64 63 63 65 65 65 66 66 67 68
61 62 63 66 74 87 90 91 92 93 91 94 92 95 90 81 70 64 57 55 62 74 78 69 60 65 74 80 82 89 91 88 84 84 82 83 84 85 87 82 76 72 65 62 63 62 64 66 68 69 70 71 72 74
71 73 75 76 86 97 96 97 96 96 98 96 94 97 95 95 92 80 76 78 86 80 75 74 76 77 80 83 84 84 86 87 83 81 81 85 80 80 80 79 76 72 67 64 65 67 68 70 72 74 74 77 78 78
75 77 84 85 96 97 98 97 94 94 92 92 97 97 98 98 98 98 97 93 85 79 82 83 82 82 86 92 91 89 88 84 75 75 79 79 83 84 80 80 76 73 68 68 70 70 70 72 73 75 79 81 82 84
79 83 87 89 89 91 90 91 91 90 95 96 97 96 97 98 97 97 97 93 92 90 91 91 87 86 91 93 92 93 91 79 74 75 74 76 77 77 80 81 78 75 71 70 70 71 73 77 80 84 85 86 88 91
94 93 94 96 90 91 91 90 91 92 91 94 97 97 96 97 97 97 94 88 88 89 90 92 94 95 95 94 92 88 85 80 76 79 80 80 81 79 79 79 79 78 78 80 80 83 86 87 89 90 91 94 95 91
98 97 97 95 94 94 89 86 86 87 89 93 96 97 97 97 98 93 88 87 88 88 90 94 95 96 97 95 88 83 82 80 81 80 78 78 79 80 79 79 81 82 83 85 88 90 92 94 94 94 92 92 94 95
88 87 87 87 87 85 83 85 87 88 89 91 91 94 97 98 97 89 83 87 88 88 90 93 94 95 94 90 87 85 81 79 80 81 78 77 78 78 78 80 81 83 85 86 88 88 89 88 90 92 94 96 97 96
65 63 63 63 65 69 70 72 77 83 88 88 92 96 98 97 92 88 88 88 88 88 89 91 92 90 90 89 88 87 86 86 83 81 80 79 78 77 78 78 78 79 78 80 82 85 89 91 93 94 94 93 89 86
49 50 58 61 61 63 67 72 81 84 86 85 87 94 96 95 93 92 85 80 78 81 82 84 86 88 89 92 91 89 86 86 87 87 84 81 80 79 78 79 80 82 83 84 88 90 88 86 85 85 84 86 87 88
42 43 46 53 61 65 68 76 79 79 82 85 89 87 85 82 81 78 76 75 76 77 79 82 85 88 90 92 93 92 90 88 85 85 84 84 83 82 83 82 82 81 80 79 79 81 84 85 83 80 82 86 88 89
48 47 51 53 53 57 62 64 67 71 74 77 79 78 78 76 73 71 71 71 72 73 74 75 77 80 81 83 84 84 83 79 76 74 72 71 71 72 73 74 75 75 76 79 81 82 81 77 79 84 88 90 92 94
36 37 39 41 42 43 42 44 47 50 51 51 51 50 49 49 43 42 40 42 44 45 46 48 49 51 52 53 53 53 54 55 56 58 60 62 65 68 71 73 74 75 76 77 78 78 79 81 88 91 92 94 96 98
37 36 36 39 39 42 37 39 41 41 41 43 45 46 46 46 44 39 33 36 39 39 39 40 39 40 42 45 48 50 53 55 57 60 63 66 69 71 72 75 78 80 79 79 79 80 82 86 91 93 93 95 98 99
43 41 39 37 40 40 40 38 37 37 38 38 38 39 41 40 38 38 32 30 34 36 38 42 47 52 56 59 62 62 63 64 66 69 71 74 77 79 80 81 82 83 84 84 82 83 84 85 87 90 95 99 96 94

GFSWCAN_prec_cthk_153.txt.gz
RH
82 86 85 73 70 60 62 60 61 69 77 78 71 61 53 53 46 39 57 93 99 95 94 88 68 65 69 80 92 92 98 86 89 87 84 76 69 63 62 59 66 75 82 74 74 77 74 47 44 55 54 61 60 55
92 89 82 74 68 71 68 64 62 68 80 86 85 68 58 55 49 43 66 92 98 99 97 89 76 71 75 92 90 89 85 82 76 75 70 67 71 69 63 65 60 77 71 82 74 75 68 70 66 66 69 75 63 56
97 87 77 79 78 76 67 60 64 70 78 87 88 71 59 53 47 42 83 98 99 99 96 87 83 86 86 82 77 74 80 80 81 77 78 75 71 69 73 68 63 63 67 75 72 69 69 79 75 72 75 67 67 62
92 79 82 75 71 68 62 51 61 63 74 80 76 66 56 49 48 58 91 98 99 96 92 88 84 76 71 69 68 68 72 77 81 80 82 82 80 71 71 71 73 73 75 76 72 72 65 68 66 61 58 55 63 62
76 75 65 61 56 55 56 55 60 63 67 72 65 57 50 46 52 91 99 97 98 94 90 79 74 72 75 72 65 63 70 83 85 81 82 82 78 80 75 73 72 72 81 84 83 73 72 65 63 67 70 70 70 61
61 51 52 52 55 61 63 67 66 60 58 55 51 44 42 50 86 98 99 99 99 94 88 91 89 87 79 71 68 60 62 67 72 75 79 80 83 88 90 83 66 67 68 63 62 58 55 55 56 51 53 55 62 61
46 49 55 65 75 90 96 95 88 64 55 50 57 56 81 89 98 98 92 90 96 92 83 81 78 75 73 71 68 69 69 70 71 73 76 73 72 80 77 68 60 58 49 40 40 40 40 38 41 45 49 58 57 70
54 61 77 92 97 85 68 68 66 64 65 78 96 97 99 99 99 99 99 98 90 84 71 74 79 73 72 74 76 71 73 73 71 74 74 73 71 66 67 52 43 35 35 38 39 41 42 44 42 45 50 53 61 64
69 86 97 98 98 96 58 53 56 63 84 97 98 98 98 99 98 98 98 95 85 69 69 71 74 79 60 59 55 60 59 66 68 73 73 74 68 61 43 35 32 32 38 39 40 43 45 48 45 42 43 50 50 58
89 97 98 98 99 97 93 99 99 98 98 94 90 95 98 98 98 95 91 84 72 68 67 71 63 63 54 60 66 67 69 70 71 67 70 71 59 45 42 45 45 44 46 48 48 48 51 48 47 51 47 67 70 73
91 96 98 98 98 98 98 97 85 87 89 91 90 93 94 92 89 84 85 73 61 59 55 55 50 50 54 62 70 71 77 68 66 54 65 60 52 46 49 55 61 61 57 55 53 49 46 48 50 49 50 56 77 81
79 91 97 98 98 98 98 94 89 84 78 74 77 81 78 76 73 75 80 75 69 59 50 44 42 45 51 52 61 72 76 74 67 61 68 64 64 65 64 71 80 86 69 53 59 64 63 56 47 48 54 57 72 79
67 79 87 91 94 95 92 86 82 82 76 73 71 73 71 71 72 69 75 69 60 51 46 36 38 38 46 48 55 65 75 68 56 64 65 61 66 70 75 87 84 66 53 46 46 48 53 58 66 68 70 76 82 84
55 66 70 80 84 86 83 74 63 57 56 49 51 58 62 59 54 51 51 48 39 35 33 35 40 44 47 61 72 75 75 72 71 67 55 58 68 69 80 71 66 60 60 60 58 58 59 59 66 79 88 90 87 95
50 58 63 66 70 70 68 69 63 56 55 54 50 54 49 47 45 41 39 37 36 37 38 43 47 50 61 82 85 79 80 76 71 59 48 59 64 72 76 74 69 67 67 63 67 68 74 76 84 87 87 90 97 96
51 48 52 56 56 57 55 55 49 44 48 52 49 48 47 46 48 48 50 55 57 53 68 68 84 94 96 97 85 80 79 73 64 59 57 58 72 76 72 72 71 69 68 65 75 75 73 73 77 82 87 88 80 67
52 48 47 50 49 50 49 45 46 48 48 52 57 55 55 61 66 60 57 62 70 83 94 96 97 91 81 88 76 72 69 63 63 60 59 64 77 80 76 69 67 68 69 75 83 76 75 75 75 75 72 68 63 63
51 37 36 39 42 41 40 46 52 57 64 68 71 72 72 71 72 77 66 65 67 79 97 88 76 73 69 68 81 94 92 90 88 86 83 82 76 73 71 70 70 74 84 86 77 67 64 61 58 58 60 63 65 65
47 46 45 45 48 56 62 65 70 80 80 80 79 83 80 75 68 66 63 57 61 71 82 84 76 64 58 59 65 78 87 91 89 89 87 81 80 77 78 83 84 89 89 83 72 69 66 63 63 64 64 64 64 66
55 57 57 62 73 81 82 84 88 87 88 93 95 94 93 80 70 68 64 62 61 60 68 72 65 56 59 63 68 77 82 85 88 88 87 82 78 81 86 87 89 88 82 75 66 66 65 64 63 63 65 66 66 68
59 60 64 68 74 84 88 91 98 96 99 97 90 96 96 92 88 77 60 56 61 65 63 59 62 64 68 69 74 82 85 87 88 87 82 79 80 86 85 83 84 82 77 75 70 66 66 65 65 66 68 69 71 73
72 74 75 78 84 88 91 94 95 92 91 88 91 95 98 97 96 96 95 84 71 63 66 68 73 79 83 83 84 87 92 93 92 88 77 75 80 81 85 87 85 84 79 77 75 72 72 72 71 71 73 75 77 82
74 78 79 81 80 81 83 89 91 91 93 90 89 92 95 96 98 96 95 92 89 86 84 86 86 86 87 87 87 89 93 94 95 87 75 76 78 80 81 81 83 84 83 82 80 77 76 77 77 77 80 84 89 92
85 87 87 87 87 86 91 92 90 91 89 89 88 88 90 92 95 97 95 88 84 86 89 93 94 94 96 95 94 92 94 91 87 84 77 80 84 85 85 86 85 84 85 85 85 85 86 88 89 91 92 94 97 98
94 93 91 93 97 97 95 92 90 87 87 84 92 89 89 92 92 91 89 88 89 90 91 92 94 95 94 93 94 95 91 84 84 84 82 84 84 83 84 87 88 87 88 87 88 89 91 93 95 96 98 98 98 96
78 81 83 84 87 88 84 83 81 82 82 84 86 91 93 95 94 91 92 93 92 93 92 92 93 95 95 96 96 96 90 85 82 80 80 82 86 84 84 84 86 88 90 91 92 94 95 96 97 96 94 96 96 97
57 57 59 59 61 64 65 61 62 68 73 79 85 92 93 96 96 94 95 93 90 89 89 90 93 95 95 95 95 91 89 87 85 85 87 86 84 84 83 82 82 84 85 86 87 89 90 90 93 94 96 98 97 95
45 45 47 48 50 51 57 58 59 62 72 82 83 91 92 94 94 96 94 88 83 82 85 84 84 88 89 92 93 92 92 93 92 91 90 89 88 88 88 86 84 84 85 86 88 89 92 95 96 92 89 87 87 85
40 41 40 41 42 45 48 53 56 61 66 70 77 82 84 83 81 79 77 75 73 77 79 81 82 86 88 92 94 95 95 94 93 91 89 86 85 85 85 85 84 82 80 78 81 83 84 83 83 86 87 84 80 84
40 42 43 44 46 45 43 47 48 53 57 58 58 57 58 57 59 60 60 58 61 65 70 74 77 79 80 81 82 84 84 82 80 76 70 67 67 66 66 68 70 72 74 74 75 77 79 82 83 83 81 82 86 91
43 42 40 38 38 35 36 39 38 36 34 34 37 41 43 45 42 37 34 35 36 38 41 43 45 49 52 54 55 56 56 56 55 54 54 56 58 61 63 66 69 72 75 77 79 80 80 81 81 81 82 85 90 94
53 50 46 45 39 41 42 38 35 34 32 33 35 34 34 35 36 31 28 29 32 35 37 38 38 39 41 43 45 48 52 56 60 61 62 64 66 68 70 72 76 77 80 83 86 86 86 85 85 85 85 87 90 91
67 66 64 60 52 47 47 47 44 39 38 37 37 39 42 45 43 37 36 34 31 31 34 38 40 43 48 54 58 60 61 63 63 64 68 72 75 76 79 83 85 86 88 91 93 95 96 95 94 93 92 93 95 98

GFSWCAN_prec_cthk_156.txt.gz
RH
71 74 80 79 81 86 82 74 69 65 60 61 61 63 66 72 64 64 52 51 51 63 81 89 92 81 91 83 79 80 99 99 98 98 97 95 85 75 74 69 71 71 80 81 79 78 69 50 48 50 47 53 58 54
74 77 80 82 85 88 85 76 71 69 62 65 64 72 77 81 74 74 64 55 50 55 73 95 95 83 85 79 78 89 89 86 96 93 85 79 82 80 74 74 63 73 68 74 70 65 62 62 66 66 66 64 65 73
82 81 85 85 91 93 81 75 73 66 67 67 65 76 84 89 88 78 70 60 58 50 70 86 86 89 84 79 75 84 92 87 84 79 81 82 75 71 71 72 67 64 63 68 70 65 63 66 67 69 77 81 80 79
84 87 91 95 95 87 82 79 76 69 65 67 66 81 90 95 94 78 67 56 58 65 69 81 94 98 90 82 78 80 75 85 81 78 77 76 73 69 73 71 71 72 73 74 74 71 69 70 71 73 75 79 78 73
96 96 97 97 88 86 87 78 69 67 60 64 70 79 92 95 90 76 67 56 55 87 88 91 98 95 87 72 74 70 66 66 70 74 83 83 74 72 73 71 67 70 73 81 83 76 77 82 76 82 84 78 72 64
97 95 86 75 72 70 67 68 67 62 52 57 69 83 87 88 84 76 69 58 64 98 98 99 98 92 84 73 66 63 57 59 64 73 81 75 70 71 76 74 62 63 60 62 67 72 74 72 78 76 76 73 68 62
65 55 52 54 54 58 60 62 62 57 54 61 69 77 80 73 70 58 64 53 67 98 98 98 96 87 79 74 67 62 57 58 59 62 64 69 74 77 72 65 57 59 61 66 68 67 65 62 61 59 54 51 49 48
44 50 61 65 73 78 80 79 78 54 51 62 66 63 64 65 66 66 80 84 88 98 97 95 92 84 75 64 62 61 65 63 60 62 64 66 70 76 68 56 53 51 53 56 56 52 50 46 46 44 44 45 45 47
73 85 92 89 93 92 92 94 76 63 57 53 53 61 79 89 81 80 98 99 98 99 89 82 70 65 57 59 59 62 65 69 58 57 57 61 66 67 56 51 47 46 48 44 41 43 44 43 40 40 42 45 47 49
98 98 92 79 69 60 43 38 50 61 60 73 99 96 99 99 99 99 99 98 92 87 80 69 55 57 55 60 65 59 58 57 55 49 51 58 54 47 46 43 41 42 47 50 47 42 42 44 43 46 49 50 49 48
98 98 98 95 88 81 74 78 92 98 97 96 98 98 99 96 98 95 92 84 77 70 63 61 58 60 54 57 59 58 63 60 61 52 57 54 50 43 47 52 45 49 55 60 60 54 53 49 45 50 52 52 52 54
98 95 93 98 97 95 97 97 92 93 95 91 90 93 93 90 85 82 81 73 66 58 60 69 68 57 57 60 64 68 68 62 60 53 61 52 39 51 58 60 66 70 70 75 64 56 53 57 60 55 47 46 49 54
98 97 97 98 94 93 95 95 93 89 86 85 85 80 76 78 78 80 81 68 62 55 58 60 62 58 59 58 59 60 62 59 51 55 52 42 33 50 68 66 67 74 70 62 58 53 46 44 49 56 61 62 61 67
93 91 90 88 87 81 79 81 79 74 72 67 65 70 64 66 62 63 67 69 63 63 59 55 58 60 62 62 59 58 54 56 61 60 46 40 47 53 70 69 67 69 67 63 61 60 54 53 51 53 59 63 76 90
70 73 73 68 64 62 59 52 49 48 53 54 51 58 55 55 56 59 63 63 61 59 55 55 52 52 58 59 59 60 66 65 60 52 49 52 59 70 77 75 69 68 70 71 67 64 61 60 64 67 74 83 91 91
55 58 59 60 60 57 52 45 42 43 43 46 46 51 49 46 48 44 42 41 43 43 44 43 49 51 53 55 63 67 66 64 67 69 73 78 81 77 77 71 66 67 64 64 64 64 65 70 73 77 84 92 95 94
41 43 44 46 46 46 44 41 38 43 48 52 57 52 51 51 55 48 45 48 50 54 56 59 68 73 88 88 92 84 74 75 81 84 79 73 70 70 70 66 69 67 65 66 70 71 77 83 75 77 77 81 83 84
33 35 37 37 36 33 32 35 40 45 49 52 55 58 57 56 53 51 50 49 50 62 80 88 84 80 79 80 77 72 83 84 81 84 92 86 84 78 75 67 66 69 69 71 76 82 85 73 68 72 73 71 68 67
29 29 30 34 35 36 39 43 51 62 68 73 75 74 73 75 75 72 68 67 70 75 91 93 87 69 65 62 60 61 65 70 78 83 83 84 83 80 76 72 70 75 80 85 90 87 76 71 71 67 66 67 69 70
37 35 41 47 51 60 67 74 76 78 83 85 84 85 84 80 74 72 71 69 63 62 66 63 56 53 53 53 54 55 59 69 78 78 79 84 85 83 77 80 85 88 89 90 86 79 75 75 71 69 69 69 69 69
53 53 58 63 66 72 74 76 80 82 83 85 85 87 89 90 84 74 64 62 61 56 54 47 50 55 56 52 52 56 67 73 76 82 87 86 82 78 77 83 84 85 86 81 78 76 74 71 67 66 69 71 72 72
61 65 67 67 67 65 68 74 80 83 83 81 82 84 87 91 92 90 91 82 68 53 48 45 47 52 52 55 60 68 76 83 84 88 91 90 78 75 79 80 86 87 87 83 80 80 78 77 75 74 74 74 76 77
69 68 67 66 68 70 74 82 85 83 85 83 86 88 91 92 94 93 92 89 83 78 78 73 66 62 64 70 79 83 86 86 89 94 95 91 78 77 80 81 83 84 85 83 83 82 82 81 79 79 80 81 83 86
79 77 80 81 83 81 85 87 88 85 85 85 85 85 84 90 94 95 93 90 86 82 83 85 87 89 91 93 94 95 96 95 96 95 87 85 81 80 85 89 89 88 88 88 86 86 86 87 87 88 90 92 95 97
90 86 84 84 86 90 93 90 87 84 80 80 83 82 83 93 95 91 91 95 95 94 95 96 96 97 98 98 98 98 97 97 97 87 84 85 85 87 88 88 89 89 91 91 92 93 93 93 93 95 97 98 98 98
68 70 72 69 72 74 74 77 76 77 74 73 71 76 86 93 95 92 94 96 98 97 95 96 96 97 97 98 98 98 98 98 95 91 87 85 83 86 89 90 90 91 92 93 94 96 97 98 98 98 98 98 98 98
57 55 57 59 59 61 63 60 60 62 61 63 74 85 90 92 91 95 98 97 91 88 87 87 87 90 95 97 98 98 97 95 92 91 91 89 88 91 91 90 89 90 89 90 92 94 94 95 96 97 98 98 98 98
43 44 46 46 48 48 52 50 49 48 55 64 72 78 85 90 92 96 93 89 87 83 79 81 83 85 84 87 91 93 95 96 94 95 97 96 93 92 91 91 92 92 90 89 89 91 93 94 95 97 98 97 98 94
39 39 39 42 44 45 45 46 44 44 51 57 64 67 67 70 69 71 72 73 73 73 74 75 80 82 83 86 89 91 93 96 96 96 96 96 94 92 89 88 88 86 85 84 82 81 82 85 88 90 89 88 89 89
45 46 43 43 44 42 36 38 39 41 43 46 46 44 42 39 37 38 38 38 39 41 46 50 56 63 68 73 76 79 81 81 81 79 76 75 71 68 65 65 65 66 69 72 75 77 78 79 81 83 84 85 85 86
67 66 62 55 45 36 34 36 35 35 35 33 32 33 29 28 26 26 26 28 32 36 38 40 42 48 49 50 53 56 57 59 57 55 54 55 54 56 60 62 64 66 69 73 75 78 81 82 83 83 84 84 85 86
72 69 71 70 63 59 57 45 38 34 31 31 32 33 33 34 33 28 25 27 26 27 29 33 36 40 42 43 45 45 48 52 57 61 64 65 66 67 68 70 72 75 77 80 82 87 90 91 92 94 95 95 95 95
87 90 88 82 73 68 69 68 60 52 45 42 39 39 40 43 43 38 38 37 37 37 33 33 37 41 44 47 53 57 59 60 61 62 63 64 66 70 74 79 81 84 89 92 93 94 95 96 98 98 98 99 99 99

GFSWCAN_prec_cthk_159.txt.gz
RH
97 84 80 68 61 77 93 95 95 93 87 70 57 48 42 40 46 70 67 66 72 64 56 60 72 90 93 88 90 95 98 90 89 95 98 96 93 84 90 85 78 78 87 90 91 89 75 56 57 56 49 48 49 50
92 97 85 76 66 70 71 75 82 87 81 71 64 62 57 55 58 71 76 73 70 67 55 51 52 61 81 90 99 94 95 92 93 97 97 98 97 85 80 83 81 95 85 84 80 74 64 58 57 53 53 54 50 56
92 98 89 83 76 79 84 89 96 94 86 79 75 71 65 59 66 76 85 85 83 68 55 45 36 44 69 85 98 94 94 90 91 90 94 95 90 82 90 92 81 72 71 72 70 62 64 62 60 60 62 62 69 77
97 98 92 82 81 86 87 93 94 91 82 79 75 67 60 61 81 87 90 93 85 71 60 34 29 37 47 75 85 92 94 91 90 84 91 85 82 78 78 75 77 75 75 73 70 66 67 67 66 67 70 69 71 73
98 98 94 83 82 89 91 95 95 87 81 78 68 64 64 66 88 98 94 93 77 70 60 55 41 46 59 67 75 92 97 91 83 90 92 83 77 77 75 73 68 66 68 77 79 71 71 73 72 73 76 79 79 77
95 91 85 85 95 98 98 98 92 84 83 74 63 65 67 79 97 99 93 81 66 64 70 76 78 68 66 98 99 93 86 85 82 74 74 71 72 71 68 66 57 57 58 61 64 69 74 75 76 74 77 81 78 76
94 95 97 98 98 96 91 82 84 87 74 69 62 68 76 91 98 93 71 73 63 63 87 96 97 85 91 98 94 90 78 72 65 65 67 66 63 61 61 58 54 58 59 62 65 68 64 63 65 67 67 66 65 63
84 75 68 67 66 66 72 77 77 76 73 69 62 72 90 98 92 71 67 80 78 70 98 97 98 93 96 95 96 86 77 69 59 55 57 56 53 57 54 46 50 54 53 54 53 55 57 60 61 60 58 55 55 52
78 80 79 81 82 81 79 77 75 70 65 69 75 86 98 89 71 61 73 80 81 96 98 97 98 98 90 94 89 82 68 65 57 56 52 49 50 50 40 41 46 50 51 50 49 49 50 53 52 51 49 46 44 40
90 87 84 96 92 85 85 82 79 71 75 80 92 86 70 59 63 92 96 97 89 92 94 90 93 98 89 80 74 64 62 57 55 47 48 48 42 31 29 33 42 47 49 51 52 51 52 49 44 41 40 40 41 44
82 88 85 65 63 61 71 65 64 71 80 79 74 79 86 79 87 97 98 98 97 93 93 93 92 83 73 66 61 59 62 53 51 47 50 49 43 29 28 39 47 49 48 53 57 58 60 60 55 54 46 42 45 51
95 97 91 67 37 41 51 57 65 74 75 74 93 99 98 98 98 96 95 89 80 77 88 89 75 64 62 56 59 60 53 56 55 51 55 48 32 24 28 33 49 66 67 66 69 67 53 48 50 55 58 53 46 49
95 96 96 96 88 72 64 69 74 79 97 99 98 98 97 95 94 81 75 73 75 81 80 72 69 61 58 54 58 60 61 62 55 57 52 39 27 25 34 45 55 69 67 71 68 62 58 55 51 46 46 56 62 64
90 87 87 88 91 92 98 98 98 96 96 82 78 85 74 80 80 76 68 72 67 65 66 62 65 66 61 57 60 60 61 61 63 61 45 34 28 37 42 48 51 69 70 66 70 66 63 62 56 51 52 50 59 68
80 74 76 78 82 83 86 88 89 83 71 67 63 70 78 77 78 77 75 70 65 62 59 56 54 53 62 65 63 63 65 61 55 47 37 48 53 59 64 66 69 73 71 66 66 68 65 60 58 57 58 58 64 72
59 57 59 57 55 57 58 61 57 56 57 53 50 46 46 45 48 49 52 54 55 55 54 53 64 67 68 65 68 61 56 49 43 47 56 68 79 81 82 77 72 70 70 69 65 64 62 64 66 66 71 73 76 83
49 50 50 47 46 45 42 39 37 39 43 43 45 43 41 41 42 41 39 41 46 51 57 60 63 60 63 63 59 48 41 45 58 62 65 72 78 77 71 66 67 69 65 61 63 66 67 72 74 77 84 81 82 83
35 37 39 38 36 34 33 35 40 46 51 51 54 51 49 46 43 41 40 39 41 46 54 56 58 65 65 59 50 47 54 59 62 67 71 77 80 84 78 74 75 72 65 62 65 68 72 80 83 87 85 82 87 86
26 29 29 27 28 32 37 43 46 57 60 62 62 63 64 63 60 58 52 51 47 49 55 66 69 70 60 53 60 64 66 63 59 62 72 77 77 80 82 82 80 76 73 73 76 80 86 89 86 77 72 71 69 69
21 23 25 29 33 38 46 53 58 59 65 67 72 74 74 73 70 66 67 63 62 64 64 66 61 63 70 68 64 63 60 55 57 59 64 72 81 88 90 88 80 80 86 90 92 92 91 87 82 80 78 75 75 77
46 45 46 48 50 53 58 63 66 69 70 70 73 78 82 84 83 77 71 67 70 64 60 52 52 53 61 62 60 58 56 54 50 61 73 81 87 90 87 76 79 82 88 90 91 87 87 82 79 81 78 74 74 77
59 60 60 59 60 61 63 69 73 77 77 75 78 83 86 88 92 93 93 89 80 64 59 52 46 45 45 46 47 46 47 51 65 74 81 85 90 93 89 78 78 82 90 93 90 90 87 85 82 80 79 78 78 80
71 68 68 68 69 70 74 79 83 82 81 79 80 79 81 88 92 93 96 94 87 84 81 77 71 65 57 51 51 56 65 74 84 86 88 91 94 92 84 81 83 85 91 91 89 89 89 89 89 88 88 88 87 89
79 76 76 80 81 80 81 84 87 87 83 82 81 80 78 85 92 95 92 89 91 93 94 94 93 92 90 87 84 85 89 93 94 94 95 96 90 86 86 85 88 92 96 96 94 92 91 91 91 91 92 93 95 97
67 68 71 77 80 81 83 84 83 82 81 76 74 68 70 84 91 94 92 95 99 99 99 98 99 98 98 98 99 99 98 98 98 97 96 91 84 87 87 90 93 94 95 96 96 97 97 97 97 98 98 98 98 98
47 51 57 58 59 62 64 68 70 69 66 61 56 61 79 84 90 89 96 98 98 95 92 90 90 92 96 98 98 98 98 98 98 97 95 92 89 87 87 89 92 94 94 96 97 97 98 98 98 98 98 98 98 98
49 48 50 53 53 52 54 52 53 54 53 52 56 67 78 84 88 92 98 98 96 91 88 86 85 86 87 89 94 97 97 98 98 96 92 92 93 92 90 93 93 92 91 92 93 94 95 96 97 98 98 98 98 98
55 52 47 44 45 45 48 48 48 45 44 45 53 59 66 72 76 81 82 82 81 78 76 75 73 76 80 85 89 91 92 94 95 95 95 97 98 97 96 95 95 95 94 94 94 93 94 95 96 97 98 98 98 98
58 58 55 53 53 52 47 44 41 37 39 45 48 47 44 40 40 42 44 48 51 55 56 60 64 67 74 82 85 88 90 93 96 97 98 98 97 96 95 94 93 93 92 91 89 87 87 87 87 88 90 90 90 91
67 69 73 73 70 63 58 53 43 39 42 42 40 36 33 28 26 28 30 29 30 32 33 37 38 43 48 57 64 70 74 78 80 81 81 81 77 75 71 67 65 65 66 66 69 71 73 77 79 81 84 86 88 89
65 75 81 79 76 66 63 65 64 56 48 40 36 36 32 30 25 25 24 23 24 26 30 34 38 40 42 49 51 55 57 59 59 59 58 58 55 54 56 60 62 63 66 68 71 74 75 77 80 83 85 86 87 89
85 83 79 78 82 83 81 74 72 66 53 47 47 44 40 39 39 37 34 34 34 33 30 28 29 33 38 40 42 44 46 47 47 52 59 63 65 64 64 65 67 69 71 75 79 82 82 84 89 92 94 96 98 99
86 87 87 83 73 79 90 95 90 86 82 73 62 59 57 54 52 48 48 44 43 43 42 38 35 37 42 44 46 47 51 56 60 61 61 61 63 64 65 67 69 72 76 78 82 86 90 94 96 97 98 98 98 98

GFSWCAN_prec_cthk_165.txt.gz
RH
89 84 94 98 98 89 77 76 73 74 83 93 92 98 98 93 84 83 81 82 79 74 65 66 64 62 58 68 79 94 95 98 96 93 96 96 89 86 86 77 81 83 88 87 96 97 91 74 74 80 71 62 56 60
97 91 87 91 99 98 92 81 83 79 76 82 91 95 97 98 89 85 82 83 83 79 65 61 58 59 62 62 70 80 80 81 84 95 94 98 97 95 87 86 77 87 82 84 91 88 84 89 84 83 73 66 60 58
91 95 95 79 93 99 98 88 86 89 84 82 92 97 98 98 92 84 82 79 78 71 63 60 51 53 60 60 62 64 62 68 71 81 95 95 94 87 85 76 72 78 82 83 84 87 92 88 87 80 76 70 67 63
86 89 95 75 77 96 99 97 91 92 94 94 98 98 98 98 93 86 79 80 72 69 65 47 49 48 52 55 55 56 58 62 70 86 90 93 98 93 81 69 65 68 72 76 79 81 84 84 85 81 79 72 69 67
91 88 88 82 83 98 99 98 93 90 93 93 96 99 98 97 86 88 88 81 81 78 69 60 58 47 46 50 53 54 54 59 65 76 81 97 98 94 82 73 66 71 70 77 75 70 70 72 77 82 80 76 76 73
82 90 91 89 94 98 98 97 89 86 87 91 94 97 98 88 90 93 92 83 81 83 84 66 49 37 49 48 56 63 58 61 68 72 75 75 83 89 87 73 66 64 62 59 52 49 50 54 62 69 76 77 76 79
80 83 97 98 97 98 97 90 88 92 96 98 98 97 89 88 88 89 81 76 73 87 95 87 63 39 49 53 60 63 63 63 67 72 72 74 87 96 83 66 41 39 36 34 32 33 37 42 45 55 60 65 69 74
91 92 93 97 98 95 93 94 96 97 98 97 95 92 92 92 90 81 75 80 93 97 95 90 68 56 56 70 77 75 72 65 71 76 77 88 91 93 73 39 31 25 24 23 24 27 31 33 39 49 56 62 64 65
93 96 97 98 96 94 95 97 98 98 97 97 96 83 85 85 82 77 75 76 95 98 97 83 69 65 75 92 86 81 81 83 88 84 86 92 91 71 40 27 23 19 20 21 25 28 31 34 37 43 52 51 56 62
90 97 98 95 91 90 91 91 93 97 97 90 78 68 70 74 82 86 89 81 76 79 85 83 92 96 93 94 98 98 98 98 97 95 95 87 66 40 28 24 20 21 24 26 29 31 36 40 43 43 49 52 52 51
91 96 89 80 80 81 81 79 81 82 78 67 61 61 65 74 80 80 77 75 68 72 70 69 75 83 96 98 98 96 95 89 82 78 77 70 49 28 23 22 21 24 23 27 31 35 42 54 61 64 70 67 62 59
59 69 75 74 77 75 71 68 65 53 54 55 59 64 71 75 77 77 75 85 75 71 76 78 79 90 97 97 98 89 85 80 71 67 62 56 35 26 24 26 26 27 32 36 39 41 41 48 69 73 68 61 57 53
46 49 58 55 55 59 61 57 55 57 60 65 77 78 81 89 98 86 78 76 82 72 75 79 81 88 91 91 92 88 75 65 57 57 52 37 28 27 28 28 30 32 36 40 43 50 51 53 75 79 72 70 65 59
61 60 56 56 58 59 60 62 64 69 74 78 86 98 98 97 94 87 79 77 83 81 87 91 88 84 87 89 85 76 68 60 59 56 44 34 30 30 29 30 32 35 45 54 56 58 62 70 82 84 81 76 73 70
62 57 58 60 58 61 66 73 79 81 87 97 96 91 90 91 87 87 84 80 73 76 89 88 86 85 86 80 70 64 63 60 53 44 38 33 34 32 34 38 45 58 64 73 80 79 73 73 79 81 82 83 74 66
73 71 64 60 60 65 75 81 85 86 84 82 77 76 85 92 85 81 78 75 77 87 91 85 85 81 81 75 67 61 56 53 45 45 40 39 39 38 37 45 56 66 72 72 75 73 70 74 78 74 71 72 68 65
64 66 71 73 72 81 88 82 84 83 69 58 54 58 59 57 60 62 69 82 84 84 88 81 76 72 72 71 64 61 60 52 49 45 44 47 42 40 41 52 64 73 82 81 77 74 74 75 76 75 69 67 66 69
49 54 53 53 60 65 69 74 72 64 58 50 47 45 44 43 43 44 48 54 58 68 69 66 65 66 65 64 59 56 58 57 54 53 54 53 47 43 47 60 64 72 87 89 86 82 80 76 71 69 68 69 72 77
40 42 44 45 47 57 63 63 56 52 49 51 54 55 56 55 54 52 48 42 42 47 52 57 61 58 52 49 47 48 56 57 58 60 60 55 48 44 50 56 61 81 89 90 86 81 83 84 83 79 77 78 80 82
28 29 34 38 43 44 50 58 62 65 69 72 77 78 79 80 83 83 77 68 60 55 55 54 52 50 51 48 49 57 63 73 64 61 57 50 44 49 50 58 72 85 91 95 83 82 89 92 92 94 94 93 89 84
45 43 44 45 49 56 63 69 74 76 76 77 76 78 78 86 90 95 95 92 80 66 60 53 52 51 52 53 55 58 59 64 71 62 54 54 54 50 49 59 76 87 91 92 87 85 89 93 92 92 94 94 92 90
64 62 62 63 63 63 67 72 75 78 82 82 80 79 78 77 79 86 96 98 97 93 87 82 80 78 75 68 63 62 61 56 57 58 57 54 53 51 54 75 86 91 91 90 89 90 91 93 96 95 94 92 91 90
76 74 71 70 70 71 77 77 81 87 89 86 83 81 78 71 69 75 84 92 96 98 99 98 98 98 98 98 93 77 65 59 55 54 54 55 56 60 76 88 91 92 90 90 92 94 95 94 93 92 94 95 96 96
68 71 69 69 72 79 79 84 87 86 81 78 75 66 61 65 69 77 82 88 96 99 96 94 91 90 94 98 98 98 97 94 85 73 69 73 78 86 95 96 96 93 89 91 93 96 97 97 97 96 95 95 96 96
45 50 51 52 57 61 55 55 53 51 54 53 55 54 54 58 66 73 81 90 97 97 94 91 86 86 89 87 91 96 97 97 97 98 96 97 97 96 95 96 96 91 92 94 96 97 98 98 98 98 98 98 98 97
56 62 68 71 69 62 57 53 52 52 50 47 44 45 50 55 60 64 75 90 94 96 95 92 86 84 80 79 83 91 93 95 97 97 97 97 97 96 96 96 95 94 95 97 98 98 98 98 98 98 98 98 98 98
67 67 65 61 65 72 72 70 67 64 58 52 49 51 53 59 64 75 81 87 82 80 82 84 85 77 76 75 73 81 87 90 91 93 95 96 97 97 97 97 96 96 95 95 97 98 98 98 98 98 98 98 98 98
67 69 70 69 70 70 74 83 87 86 86 85 83 73 62 58 59 54 49 46 44 46 51 61 64 65 68 65 66 70 80 85 87 90 92 93 95 97 98 98 97 97 98 98 98 98 98 98 98 98 98 98 98 98
80 81 82 80 85 88 89 86 86 82 79 84 91 94 87 68 63 54 47 44 40 37 35 37 40 42 41 40 44 48 58 66 70 78 86 88 89 89 89 89 88 87 87 87 85 85 82 79 76 76 78 81 82 83
97 98 98 98 98 95 91 89 88 82 79 77 74 79 92 92 81 70 68 57 48 43 41 39 37 36 39 42 43 48 55 61 64 67 68 69 70 71 69 67 63 56 53 53 56 58 60 62 64 67 70 73 76 80
98 97 98 98 98 92 88 90 80 77 75 73 77 79 80 92 95 90 85 76 65 52 48 47 45 40 38 39 41 45 50 56 59 60 60 60 60 60 59 57 56 59 61 60 60 61 62 63 66 68 73 76 78 80
89 93 97 97 98 95 93 87 81 78 76 72 75 75 75 82 96 98 95 91 81 70 61 56 54 52 46 44 44 45 47 49 52 53 53 53 53 56 63 66 65 63 63 64 64 66 67 70 72 75 80 85 88 91
79 77 86 98 96 77 67 78 80 80 71 67 78 83 81 88 92 96 94 90 85 82 75 70 64 61 58 49 47 48 49 50 51 52 55 60 64 66 67 66 66 66 66 66 68 70 73 77 82 87 89 90 91 94

GFSWCAN_prec_cthk_168.txt.gz
RH
94 96 94 96 96 99 95 77 64 54 68 91 94 95 97 97 84 84 88 84 84 85 78 75 72 69 71 69 72 75 83 89 95 98 97 95 91 77 77 72 70 71 86 81 85 90 78 72 71 72 77 72 76 72
95 93 91 93 89 93 99 96 81 72 65 72 86 92 99 96 97 95 89 80 78 76 69 65 64 62 66 68 74 74 70 74 82 91 94 85 83 90 95 87 78 81 74 77 84 83 87 86 84 86 86 89 80 78
91 95 93 90 97 91 95 99 96 85 80 76 81 92 94 94 98 98 95 89 88 81 68 60 56 58 54 54 58 67 66 74 71 78 85 86 88 95 96 85 80 75 70 77 82 74 73 76 80 90 96 90 83 78
79 81 91 96 98 95 93 98 98 89 88 86 82 85 91 98 98 98 96 91 89 77 69 55 50 45 47 53 57 63 66 70 76 82 89 89 92 83 85 95 82 77 69 65 66 66 66 74 79 82 92 87 82 80
90 88 87 86 92 96 91 96 98 92 89 91 89 91 98 99 99 98 97 87 75 73 65 62 53 44 47 46 52 59 62 67 75 75 73 80 82 84 93 82 75 76 68 68 70 71 74 71 65 65 76 86 81 80
89 92 88 92 95 92 87 96 99 96 96 96 97 97 97 97 99 98 97 90 80 83 84 69 60 48 43 41 43 52 56 66 69 70 72 67 68 86 67 59 69 69 65 62 62 58 52 44 42 48 57 65 81 83
87 91 96 94 92 91 94 99 99 98 95 98 96 99 99 97 97 94 82 77 78 84 83 74 59 48 39 40 43 55 60 70 74 72 63 66 79 86 74 54 70 69 53 42 37 34 31 28 29 32 35 41 54 65
94 96 95 98 97 98 98 97 95 90 93 96 99 97 94 95 90 86 82 79 80 82 82 78 61 53 49 62 68 64 69 70 72 72 61 65 71 74 64 56 62 49 32 25 24 23 23 24 26 27 29 33 40 50
93 94 96 97 95 89 83 78 79 84 91 95 95 94 96 90 87 87 77 74 83 92 95 96 81 77 73 78 77 81 79 79 77 70 63 74 73 70 59 72 52 32 23 21 20 22 23 25 26 27 29 32 39 47
86 88 85 82 79 74 74 78 80 82 85 88 90 89 88 84 75 72 80 83 81 88 90 70 83 86 86 97 95 90 92 88 80 71 75 78 64 65 73 60 37 25 20 20 22 22 25 27 30 31 35 38 40 48
78 78 77 77 77 76 76 76 78 80 84 83 74 75 67 67 77 86 87 84 82 75 61 56 62 70 80 90 96 95 98 97 93 90 82 83 67 67 63 44 27 21 24 23 22 24 29 35 37 37 41 47 54 58
65 65 67 72 74 75 72 71 70 74 72 63 58 59 65 76 77 78 72 74 69 71 69 78 85 82 89 91 98 98 98 91 86 90 93 75 61 51 36 25 26 26 27 29 31 36 40 39 40 42 42 49 55 66
50 54 57 60 60 61 61 61 63 59 54 55 62 66 71 79 91 82 77 78 87 86 86 92 94 90 95 98 98 97 92 87 82 84 74 59 47 33 28 28 29 28 29 31 35 39 42 49 58 60 60 66 76 68
51 52 52 52 54 57 58 58 60 63 66 71 77 86 91 97 96 95 88 86 85 87 92 93 98 97 97 94 89 87 82 77 74 73 51 39 35 30 29 28 26 29 35 40 44 53 60 71 76 71 64 76 83 80
49 50 53 54 58 62 67 70 72 75 80 91 97 96 96 93 95 97 96 92 92 90 85 91 96 93 92 91 81 77 77 68 57 47 41 38 33 31 28 31 36 40 41 46 56 63 64 69 71 69 70 75 77 75
60 61 66 68 71 71 77 76 72 71 73 84 81 82 82 90 91 90 88 90 87 84 90 93 91 87 84 79 71 65 55 51 46 44 42 38 37 40 42 43 43 41 44 54 66 77 75 71 68 66 69 76 79 71
62 56 60 64 70 71 70 74 76 75 73 65 60 55 56 57 56 66 76 84 91 95 94 85 80 79 73 72 69 69 69 61 57 52 50 51 52 51 50 49 45 43 47 58 72 86 86 80 73 70 73 78 79 71
57 58 57 58 63 69 72 69 69 66 55 49 53 49 52 51 48 47 48 53 63 74 82 84 76 74 72 65 61 59 55 52 51 48 50 57 61 62 57 51 45 43 50 61 78 89 89 84 76 72 71 73 73 71
45 46 47 53 57 61 63 63 62 60 53 62 67 68 69 69 67 66 64 54 46 47 56 65 71 64 57 52 50 47 43 45 46 53 55 58 68 69 55 47 43 46 57 65 82 90 91 83 83 86 86 82 79 76
36 38 42 48 52 61 63 66 74 77 75 79 81 81 82 82 81 84 88 88 78 64 52 44 40 40 44 48 48 50 51 53 59 66 80 86 67 62 52 47 45 49 56 68 85 90 91 84 86 93 93 93 95 94
49 50 51 62 76 81 80 78 81 83 83 82 81 82 83 82 82 88 91 97 98 92 73 61 58 57 57 57 60 59 59 61 65 71 77 82 79 61 52 48 52 53 62 78 89 91 91 89 90 92 92 92 94 95
80 77 75 76 76 77 76 76 78 81 81 85 87 88 86 82 77 72 78 87 94 96 98 97 92 84 83 85 87 87 79 69 61 57 59 62 61 57 56 56 56 58 72 85 91 92 91 92 93 94 95 95 95 94
81 83 84 82 80 77 78 82 86 86 89 90 88 83 76 72 66 64 70 77 87 97 98 98 97 94 94 95 98 98 98 95 83 68 60 54 53 54 55 58 64 75 89 93 93 90 92 94 94 94 93 93 95 96
77 75 77 76 66 66 64 71 78 83 80 71 62 53 56 66 66 67 72 82 90 95 98 95 88 85 86 89 93 94 98 98 98 98 96 89 80 74 75 80 85 93 95 96 92 91 93 94 96 97 95 94 94 95
52 58 60 66 71 72 74 69 66 59 59 51 48 48 53 58 60 58 66 81 85 88 92 92 92 90 87 84 81 87 93 97 97 97 97 98 98 98 98 98 97 97 97 95 94 95 96 96 98 98 98 97 97 96
66 73 76 77 77 72 66 63 60 58 54 54 53 48 50 53 55 63 74 81 79 80 82 84 88 87 85 82 80 79 76 87 90 91 93 96 97 98 98 97 98 98 97 96 97 98 97 97 98 98 98 98 98 98
83 82 73 66 63 67 71 76 81 85 86 81 72 68 66 61 67 79 78 77 71 64 63 65 70 71 74 79 76 73 68 78 86 86 87 88 91 94 96 97 97 97 97 97 96 97 97 98 98 99 98 98 98 98
90 87 85 80 78 84 88 89 91 90 91 94 92 92 94 88 80 73 68 61 52 47 42 40 38 40 46 53 58 58 60 68 75 81 82 84 90 92 93 94 95 95 95 95 95 95 96 97 98 98 98 98 98 98
97 98 97 97 97 98 98 98 94 90 90 87 85 82 82 83 83 91 92 84 71 58 48 44 42 39 37 37 40 43 44 51 56 62 65 69 77 82 83 81 79 78 77 75 72 69 67 66 65 67 69 72 74 76
89 95 97 98 97 98 98 98 98 90 85 85 83 82 83 81 81 82 82 86 86 80 71 58 52 48 42 38 39 42 47 52 58 62 64 65 66 66 66 66 65 61 57 51 51 54 57 58 59 61 63 67 71 74
80 84 92 91 90 93 97 92 84 83 81 80 84 91 93 86 86 85 83 79 75 87 84 78 69 59 55 49 45 45 48 51 55 59 61 61 60 58 57 56 55 53 57 60 59 59 59 60 62 65 67 69 73 77
66 70 72 73 75 86 98 91 78 79 78 82 83 92 94 94 93 90 88 85 77 74 85 86 79 75 68 62 54 51 50 51 52 53 55 54 52 52 52 55 63 65 63 62 61 62 62 63 65 69 72 77 83 89
47 51 57 75 89 91 80 66 69 72 77 77 80 87 86 81 85 87 88 85 79 73 77 85 84 80 80 74 69 58 56 56 57 56 54 53 53 58 65 68 67 66 64 63 64 65 66 68 73 79 84 87 88 91